sat.trackr.live / text

‹ back to catalog

STARLINK-31742

NORAD 59499 · 2024-071R

PAYLOAD ACTIVE UNKNOWN

§ Identity

Operator
Country
US
Launch date
2024-04-13
Launch site
AFETR
Launch vehicle
Mass (kg)
RCS (m²)

Purposes: comms

External: N2YO · Heavens-Above · Gunter

§ Orbital elements

Epoch: 2026-05-25T00:46:16.979808Z

Period
94.27 min
Inclination
43.0008°
Eccentricity
0.0000852
Mean motion
15.27581107 rev/d
Perigee alt
482.5 km
Apogee alt
483.6 km
Semi-major
6,861.2 km
B*
7.7838e-5
RAAN
268.3875°
Arg perigee
283.4632°
Mean anomaly
76.6124°
Rev number
11,988

§ Raw data

STARLINK-317421 59499U 24071R   26145.03214097  .00001881  00000+0  77838-4 0  99982 59499  43.0008 268.3875 0000852 283.4632  76.6124 15.27581107119885

JSON: /api/v1/satellites/59499 · /tle

For live sub-satellite position, see the globe view (requires WebGL).

§ Visibility from observer

Set your observer location to see the next 7 days of passes ≥ 10°. The values pass through the URL so the page stays shareable.

No JS? Fill the form by hand. The geolocation button needs JavaScript.